Location: Iowa City
(41.6610°N, 91.5300°W)
Time: 13:02:12
(UTC-05:00)

ISS - Visible Passes

Search period start: 24 October 2014 00:00
Search period end: 02 November 2014 23:00
Orbit: 412 x 416 km, 51.6° (Epoch: 24 October)

Date Brightness Start Highest point End Pass type
(mag) Time Alt. Az. Time Alt. Az. Time Alt. Az.
24 Oct -2.3 18:37:38 10° NW 18:40:41 32° NNE 18:43:44 10° E visible
24 Oct -1.8 20:14:18 10° WNW 20:16:57 35° WSW 20:16:57 35° WSW visible
25 Oct -3.0 19:24:58 10° WNW 19:28:18 68° SW 19:30:14 23° SE visible
26 Oct -3.3 18:35:44 10° NW 18:39:04 69° NNE 18:42:23 10° ESE visible
26 Oct -0.5 20:13:32 10° W 20:15:23 14° SW 20:16:35 12° SSW visible
27 Oct -1.0 19:23:31 10° WNW 19:26:17 24° SW 19:29:03 10° S visible
28 Oct -2.0 18:33:54 10° WNW 18:37:06 43° SW 18:40:16 10° SSE visible
30 Oct -0.2 18:32:34 10° W 18:34:45 16° SW 18:36:55 10° S visible
